GORIZONT 5 [-]

Last updated on May 24, 2019, 3:05 a.m. UTC

1 13092U 82020A   19143.63475433 -.00000014  00000-0  00000+0 0  9995
2 13092  13.7109 326.1960 0030141 182.1619 190.4960  0.98530977 96149
UTC
Height (km)
Latitude
Longitude
Inclination
Orbital Period
UTC large
Height (km)
Speed (km/s)
/
Latitude / Longitude
Inclination (degrees)
Orbital Period (minutes)
Azimuth
Elevation
Range (km)
Doppler Factor
iOS Compass Heading
iOS Angle

Next 30 passes for location: Hong Kong

Rise time Rise Azimuth (degrees) Set time Set Azimuth (degrees) Duration Max altitude (degrees)

No matching passes for this satellites